Lebanon, NH

3:32 AM EDT on March 26, 2017 (GMT -0400)
Lebanon Municipal

Weather History for KLEB - November, 2012

Change the Weather History Date:

Friday, November 9, 2012

  Actual Average Record
Temperature  
Mean Temperature 42 °F -  
Max Temperature 50 °F 48 °F 68 °F (1945)
Min Temperature 35 °F 30 °F 11 °F (1971)
Degree Days  
Heating Degree Days 22    
Moisture  
Dew Point 25 °F    
Average Humidity 55    
Maximum Humidity 76    
Minimum Humidity 28    
Precipitation  
Precipitation 0.00 in - - ()
Sea Level Pressure  
Sea Level Pressure 30.00 in    
Wind  
Wind Speed 7 mph (NNW)    
Max Wind Speed 14 mph    
Max Gust Speed 22 mph    
Visibility 10 miles    
Events      
Averages and records for this station are not official NWS values.
T = Trace of Precipitation, MM = Missing Value Source: NWS Daily Summary

Daily Weather History Graph

Daily Weather History Graph

Search for Another Location

Airport or City:

Trip Planner

Search our weather history database for the weather conditions in past years. The results will help you decide how hot, cold, wet, or windy it might be!

Date:

Astronomy

Nov. 09, 2012 Rise Set
Actual Time 6:35 AM EST 4:29 PM EST
Civil Twilight 6:05 AM EST 5:00 PM EST
Nautical Twilight 5:31 AM EST 5:34 PM EST
Astronomical Twilight 4:57 AM EST 6:08 PM EST
Moon 1:23 AM EST (11/9) 1:48 PM EST (11/9)
Length of Visible Light 10h 54m
Length of Day
9h 53m
Waning Crescent, 23% of the Moon is Illuminated
Nov 9
Waning Crescent
Nov 13
New
Nov 20
First Quarter
Nov 28
Full
Dec 6
Last Quarter

Hourly Weather History & Observations

Time (EST) Temp. Windchill Dew Point Humidity Pressure Visibility Wind Dir Wind Speed Gust Speed Precip Events Conditions
12:53 AM 36.0 °F 32.1 °F 28.9 °F 76% 29.89 in 10.0 mi NNW 4.6 mph - N/A   Overcast
1:53 AM 37.0 °F 29.8 °F 28.0 °F 70% 29.90 in 10.0 mi NNW 10.4 mph - N/A   Overcast
2:53 AM 37.0 °F 30.4 °F 27.0 °F 67% 29.90 in 10.0 mi NNW 9.2 mph 17.3 mph N/A   Overcast
3:53 AM 37.0 °F 31.6 °F 27.0 °F 67% 29.91 in 10.0 mi NW 6.9 mph - N/A   Overcast
4:53 AM 37.0 °F 30.4 °F 27.0 °F 67% 29.93 in 10.0 mi NNW 9.2 mph - N/A   Overcast
5:40 AM 35.6 °F 29.9 °F 24.8 °F 65% 29.92 in 10.0 mi NNW 6.9 mph - N/A   Scattered Clouds
5:53 AM 35.1 °F 29.3 °F 25.0 °F 67% 29.95 in 10.0 mi NNW 6.9 mph - N/A   Mostly Cloudy
7:53 AM 36.0 °F 33.3 °F 24.1 °F 62% 29.99 in 10.0 mi North 3.5 mph - N/A   Clear
8:53 AM 39.0 °F 34.8 °F 23.0 °F 53% 30.00 in 10.0 mi North 5.8 mph 17.3 mph N/A   Clear
9:53 AM 41.0 °F 34.3 °F 23.0 °F 49% 30.00 in 10.0 mi NW 11.5 mph 19.6 mph N/A   Clear
10:53 AM 45.0 °F 40.6 °F 21.9 °F 40% 29.99 in 10.0 mi NW 8.1 mph - N/A   Clear
11:53 AM 48.0 °F - 19.9 °F 33% 29.97 in 10.0 mi NNW 12.7 mph - N/A   Clear
12:53 PM 48.9 °F - 18.0 °F 29% 29.97 in 10.0 mi NW 13.8 mph 21.9 mph N/A   Clear
1:53 PM 50.0 °F - 19.0 °F 29% 29.97 in 10.0 mi NW 11.5 mph 19.6 mph N/A   Clear
2:53 PM 50.0 °F - 18.0 °F 28% 29.99 in 10.0 mi NW 10.4 mph 16.1 mph N/A   Clear
3:53 PM 46.9 °F - 25.0 °F 42% 30.03 in 10.0 mi NW 13.8 mph 21.9 mph N/A   Overcast
4:53 PM 45.0 °F 42.6 °F 25.0 °F 46% 30.04 in 10.0 mi NW 4.6 mph - N/A   Overcast
5:53 PM 45.0 °F - 25.0 °F 46% 30.06 in 10.0 mi Calm Calm - N/A   Overcast
6:53 PM 42.1 °F - 28.9 °F 60% 30.07 in 10.0 mi Calm Calm - N/A   Overcast
7:53 PM 42.1 °F - 30.0 °F 62% 30.08 in 10.0 mi Calm Calm - N/A   Overcast
8:53 PM 41.0 °F - 28.9 °F 62% 30.08 in 10.0 mi Calm Calm - N/A   Overcast
9:53 PM 41.0 °F - 30.9 °F 67% 30.08 in 10.0 mi Calm Calm - N/A   Overcast
10:53 PM 41.0 °F - 30.9 °F 67% 30.09 in 10.0 mi Calm Calm - N/A   Overcast
11:53 PM 41.0 °F - 30.9 °F 67% 30.09 in 10.0 mi Calm Calm - N/A   Overcast